Zurück zum Katalog

CENTISPACE-1 S1

AktivNavigationSSO
NORAD 43636·PAYLOAD·🇨🇳 China

Gestartet Sep 29, 2018 von Jiuquan Satellite Launch Center

Loading…

Nächste Überflüge (nächste 24 Stunden)

TLE

AktuellSource: Space-Track

Epoche: Sep 14, 2026, 13:03 UTC

1 43636U 18075A   26257.54380237  .00000239  00000-0  58815-4 0  9992
2 43636  97.8708 276.8345 0008205 190.4742 169.6290 14.60068519423596

Verfolge CENTISPACE-1 S1 in Echtzeit mit AllMySat

Download on the App Store